TimeCDT,TemperatureF,Dew PointF,Humidity,Sea Level PressureIn,VisibilityMPH,Wind Direction,Wind SpeedMPH,Gust SpeedMPH,PrecipitationIn,Events,Conditions,WindDirDegrees,DateUTC
12:15 AM,75.2,69.8,83,29.90,10.0,Calm,Calm,-,N/A,,Clear,0,2013-09-01 05:15:00
12:35 AM,75.2,68.0,78,29.90,10.0,Calm,Calm,-,N/A,,Clear,0,2013-09-01 05:35:00
12:55 AM,73.4,68.0,83,29.89,10.0,Calm,Calm,-,N/A,,Clear,0,2013-09-01 05:55:00
1:15 AM,73.4,68.0,83,29.89,10.0,Calm,Calm,-,N/A,,Clear,0,2013-09-01 06:15:00
1:35 AM,73.4,68.0,83,29.89,10.0,Calm,Calm,-,N/A,,Clear,0,2013-09-01 06:35:00
1:55 AM,73.4,68.0,83,29.89,7.0,Calm,Calm,-,N/A,,Clear,0,2013-09-01 06:55:00
2:15 AM,73.4,69.8,88,29.90,10.0,Calm,Calm,-,N/A,,Scattered Clouds,0,2013-09-01 07:15:00
2:35 AM,73.4,69.8,88,29.90,10.0,Calm,Calm,-,N/A,,Mostly Cloudy,0,2013-09-01 07:35:00
2:55 AM,73.4,69.8,88,29.90,10.0,Calm,Calm,-,N/A,,Overcast,0,2013-09-01 07:55:00
3:15 AM,73.4,69.8,88,29.89,5.0,SE,4.6,-,0.08,Rain,Light Rain,140,2013-09-01 08:15:00
3:35 AM,73.4,69.8,88,29.89,7.0,SSE,6.9,-,0.08,Thunderstorm,Thunderstorm,160,2013-09-01 08:35:00
3:55 AM,73.4,69.8,88,29.89,10.0,SE,4.6,-,0.08,,Scattered Clouds,140,2013-09-01 08:55:00
4:15 AM,73.4,69.8,88,29.89,7.0,Calm,Calm,-,N/A,,Scattered Clouds,0,2013-09-01 09:15:00
4:35 AM,73.4,69.8,88,29.89,7.0,SSE,3.5,-,N/A,,Scattered Clouds,160,2013-09-01 09:35:00
4:55 AM,75.2,69.8,83,29.89,10.0,SSE,3.5,-,N/A,,Scattered Clouds,160,2013-09-01 09:55:00
5:15 AM,73.4,69.8,88,29.89,7.0,South,3.5,-,N/A,,Clear,190,2013-09-01 10:15:00
5:35 AM,75.2,69.8,83,29.89,10.0,SSW,4.6,-,N/A,,Scattered Clouds,200,2013-09-01 10:35:00
5:55 AM,73.4,69.8,88,29.89,10.0,Calm,Calm,-,N/A,,Mostly Cloudy,0,2013-09-01 10:55:00
6:15 AM,73.4,69.8,88,29.90,5.0,Calm,Calm,-,N/A,,Haze,0,2013-09-01 11:15:00
6:35 AM,71.6,69.8,94,29.91,4.0,Calm,Calm,-,N/A,Thunderstorm,Scattered Clouds,0,2013-09-01 11:35:00
6:55 AM,71.6,69.8,94,29.92,3.0,Calm,Calm,-,N/A,,Mostly Cloudy,0,2013-09-01 11:55:00
7:15 AM,71.6,69.8,94,29.92,2.5,Calm,Calm,-,N/A,,Overcast,0,2013-09-01 12:15:00
7:35 AM,73.4,69.8,88,29.92,5.0,Calm,Calm,-,N/A,,Scattered Clouds,0,2013-09-01 12:35:00
7:55 AM,73.4,69.8,88,29.93,4.0,Calm,Calm,-,N/A,,Clear,0,2013-09-01 12:55:00
8:15 AM,73.4,69.8,88,29.93,5.0,Calm,Calm,-,N/A,,Mostly Cloudy,0,2013-09-01 13:15:00
8:35 AM,75.2,69.8,83,29.93,5.0,Calm,Calm,-,N/A,,Haze,0,2013-09-01 13:35:00
8:55 AM,77.0,69.8,78,29.95,7.0,North,5.8,-,N/A,,Mostly Cloudy,350,2013-09-01 13:55:00
9:15 AM,77.0,69.8,78,29.96,7.0,NNW,4.6,-,N/A,,Scattered Clouds,340,2013-09-01 14:15:00
9:35 AM,78.8,69.8,74,29.97,7.0,North,12.7,-,N/A,,Scattered Clouds,350,2013-09-01 14:35:00
9:55 AM,78.8,69.8,74,29.96,10.0,North,9.2,-,N/A,,Scattered Clouds,350,2013-09-01 14:55:00
10:15 AM,78.8,68.0,69,29.96,10.0,North,6.9,-,N/A,,Scattered Clouds,350,2013-09-01 15:15:00
10:35 AM,80.6,68.0,65,29.97,10.0,North,6.9,-,N/A,,Scattered Clouds,350,2013-09-01 15:35:00
10:55 AM,80.6,68.0,65,29.97,10.0,NW,8.1,-,N/A,,Scattered Clouds,310,2013-09-01 15:55:00
11:15 AM,80.6,64.4,58,29.96,10.0,NNW,5.8,-,N/A,,Scattered Clouds,330,2013-09-01 16:15:00
11:35 AM,80.6,64.4,58,29.94,10.0,SSW,4.6,-,N/A,,Clear,200,2013-09-01 16:35:00
11:55 AM,82.4,62.6,51,29.92,10.0,South,8.1,-,N/A,,Clear,190,2013-09-01 16:55:00
12:15 PM,86.0,64.4,48,29.92,10.0,WSW,12.7,17.3,N/A,,Clear,240,2013-09-01 17:15:00
12:35 PM,86.0,62.6,45,29.92,10.0,West,12.7,16.1,N/A,,Clear,270,2013-09-01 17:35:00
12:55 PM,86.0,60.8,43,29.92,10.0,WNW,11.5,19.6,N/A,,Clear,300,2013-09-01 17:55:00
1:15 PM,86.0,59.0,40,29.92,10.0,West,10.4,18.4,N/A,,Clear,280,2013-09-01 18:15:00
1:35 PM,86.0,60.8,43,29.91,10.0,West,12.7,18.4,N/A,,Clear,280,2013-09-01 18:35:00
1:55 PM,86.0,59.0,40,29.91,10.0,NW,12.7,17.3,N/A,,Clear,310,2013-09-01 18:55:00
2:15 PM,86.0,60.8,43,29.90,10.0,WNW,9.2,-,N/A,,Clear,300,2013-09-01 19:15:00
2:35 PM,86.0,60.8,43,29.90,10.0,WNW,8.1,-,N/A,,Clear,300,2013-09-01 19:35:00
2:55 PM,86.0,62.6,45,29.90,10.0,North,12.7,-,N/A,,Clear,350,2013-09-01 19:55:00
3:15 PM,86.0,60.8,43,29.89,10.0,North,10.4,16.1,N/A,,Clear,350,2013-09-01 20:15:00
3:35 PM,86.0,62.6,45,29.88,10.0,NNW,8.1,-,N/A,,Clear,330,2013-09-01 20:35:00
3:55 PM,84.2,60.8,45,29.88,10.0,North,5.8,10.4,N/A,,Clear,360,2013-09-01 20:55:00
4:15 PM,82.4,62.6,51,29.89,10.0,NNW,8.1,-,N/A,,Clear,340,2013-09-01 21:15:00
4:35 PM,82.4,62.6,51,29.88,10.0,North,6.9,-,N/A,,Clear,350,2013-09-01 21:35:00
4:55 PM,84.2,62.6,48,29.89,10.0,North,6.9,-,N/A,,Clear,350,2013-09-01 21:55:00
5:15 PM,82.4,62.6,51,29.89,10.0,NNW,6.9,-,N/A,,Clear,340,2013-09-01 22:15:00
5:35 PM,82.4,64.4,54,29.89,10.0,Calm,Calm,-,N/A,,Clear,0,2013-09-01 22:35:00
5:55 PM,82.4,62.6,51,29.88,10.0,North,3.5,-,N/A,,Clear,360,2013-09-01 22:55:00
6:15 PM,82.4,62.6,51,29.87,10.0,Calm,Calm,-,N/A,,Clear,0,2013-09-01 23:15:00
6:35 PM,80.6,64.4,58,29.87,10.0,Calm,Calm,-,N/A,,Clear,0,2013-09-01 23:35:00
6:55 PM,78.8,68.0,69,29.88,10.0,Calm,Calm,-,N/A,,Clear,0,2013-09-01 23:55:00
7:15 PM,77.0,68.0,74,29.89,10.0,Calm,Calm,-,N/A,,Clear,0,2013-09-02 00:15:00
7:35 PM,77.0,68.0,74,29.89,10.0,Calm,Calm,-,N/A,,Clear,0,2013-09-02 00:35:00
7:55 PM,75.2,69.8,83,29.89,10.0,Calm,Calm,-,N/A,,Clear,0,2013-09-02 00:55:00
8:15 PM,75.2,68.0,78,29.90,10.0,Calm,Calm,-,N/A,,Clear,0,2013-09-02 01:15:00
8:35 PM,73.4,68.0,83,29.91,10.0,Calm,Calm,-,N/A,,Clear,0,2013-09-02 01:35:00
8:55 PM,75.2,69.8,83,29.91,10.0,Calm,Calm,-,N/A,,Clear,0,2013-09-02 01:55:00
9:15 PM,73.4,68.0,83,29.91,10.0,Calm,Calm,-,N/A,,Clear,0,2013-09-02 02:15:00
9:35 PM,71.6,68.0,88,29.92,10.0,Calm,Calm,-,N/A,,Clear,0,2013-09-02 02:35:00
9:55 PM,71.6,68.0,88,29.92,10.0,Calm,Calm,-,N/A,,Clear,0,2013-09-02 02:55:00
10:15 PM,71.6,68.0,88,29.92,10.0,Calm,Calm,-,N/A,,Clear,0,2013-09-02 03:15:00
10:35 PM,71.6,68.0,88,29.92,10.0,Calm,Calm,-,N/A,,Clear,0,2013-09-02 03:35:00
10:55 PM,71.6,68.0,88,29.92,10.0,Calm,Calm,-,N/A,,Clear,0,2013-09-02 03:55:00
11:15 PM,71.6,68.0,88,29.92,10.0,Calm,Calm,-,N/A,,Clear,0,2013-09-02 04:15:00
11:35 PM,71.6,68.0,88,29.92,10.0,Calm,Calm,-,N/A,,Scattered Clouds,0,2013-09-02 04:35:00
11:55 PM,71.6,68.0,88,29.92,7.0,Calm,Calm,-,N/A,,Scattered Clouds,0,2013-09-02 04:55:00